sat.trackr.live / text

‹ back to catalog

STARLINK-11595 [DTC]

NORAD 63669 · 2025-085F

PAYLOAD ACTIVE UNKNOWN

§ Identity

Operator
Country
US
Launch date
2025-04-28
Launch site
AFETR
Launch vehicle
Mass (kg)
RCS (m²)

Purposes: comms

External: N2YO · Heavens-Above · Gunter

§ Orbital elements

Epoch: 2026-09-20T18:59:58.390656Z

Period
91.66 min
Inclination
42.9999°
Eccentricity
0.0002243
Mean motion
15.70946084 rev/d
Perigee alt
354.7 km
Apogee alt
357.7 km
Semi-major
6,734.3 km
B*
1.3439e-3
RAAN
182.6449°
Arg perigee
240.8551°
Mean anomaly
119.2093°
Rev number
8,157

§ Raw data

STARLINK-11595 [DTC]1 63669U 25085F   26263.79164804  .00176488  00000+0  13439-2 0  99932 63669  42.9999 182.6449 0002243 240.8551 119.2093 15.70946084 81574

JSON: /api/v1/satellites/63669 · /tle

For live sub-satellite position, see the globe view (requires WebGL).

§ Visibility from observer

Set your observer location to see the next 7 days of passes ≥ 10°. The values pass through the URL so the page stays shareable.

No JS? Fill the form by hand. The geolocation button needs JavaScript.